| time (UTC) | temp F | wind direction | speed MPH | gust MPH | rain 1hr in | rain 24hr in | rain mn in | humidity % | barometer mb |
| 20260506023010 | 73 | 177 | 4.0 | 9.0 | 0.00 | 0.00 | 0.00 | 46 | 1007.9 |
| 20260506022509 | 73 | 184 | 4.0 | 9.0 | 0.00 | 0.00 | 0.00 | 46 | 1007.8 |
| 20260506022009 | 73 | 192 | 4.0 | 9.0 | 0.00 | 0.00 | 0.00 | 45 | 1007.8 |
| 20260506021510 | 73 | 191 | 3.0 | 8.0 | 0.00 | 0.00 | 0.00 | 45 | 1007.8 |
| 20260506021010 | 73 | 201 | 4.0 | 10.0 | 0.00 | 0.00 | 0.00 | 45 | 1007.7 |
| 20260506020509 | 73 | 195 | 2.0 | 10.0 | 0.00 | 0.00 | 0.00 | 45 | 1007.7 |
| 20260506020009 | 73 | 202 | 2.0 | 5.0 | 0.00 | 0.00 | 0.00 | 45 | 1007.6 |
| 20260506015509 | 73 | 199 | 2.0 | 6.0 | 0.00 | 0.00 | 0.00 | 45 | 1007.6 |
| 20260506015011 | 73 | 186 | 3.0 | 8.0 | 0.00 | 0.00 | 0.00 | 45 | 1007.7 |
| 20260506014512 | 74 | 223 | 3.0 | 8.0 | 0.00 | 0.00 | 0.00 | 45 | 1007.6 |
| 20260506014008 | 74 | 205 | 4.0 | 9.0 | 0.00 | 0.00 | 0.00 | 44 | 1007.4 |
| 20260506013508 | 74 | 217 | 4.0 | 9.0 | 0.00 | 0.00 | 0.00 | 45 | 1007.4 |
| 20260506013008 | 74 | 227 | 5.0 | 9.0 | 0.00 | 0.00 | 0.00 | 44 | 1007.5 |
| 20260506012508 | 74 | 207 | 2.0 | 7.0 | 0.00 | 0.00 | 0.00 | 44 | 1007.2 |
| 20260506012008 | 74 | 183 | 2.0 | 7.0 | 0.00 | 0.00 | 0.00 | 43 | 1007.2 |
| 20260506011512 | 74 | 216 | 3.0 | 7.0 | 0.00 | 0.00 | 0.00 | 43 | 1007.3 |
| 20260506011009 | 75 | 232 | 2.0 | 8.0 | 0.00 | 0.00 | 0.00 | 43 | 1007.2 |
| 20260506010507 | 75 | 181 | 3.0 | 12.0 | 0.00 | 0.00 | 0.00 | 43 | 1007.1 |
| 20260506010007 | 75 | 200 | 5.0 | 12.0 | 0.00 | 0.00 | 0.00 | 43 | 1007.1 |
| 20260506005508 | 75 | 203 | 4.0 | 12.0 | 0.00 | 0.00 | 0.00 | 43 | 1007.0 |
| 20260506005006 | 75 | 189 | 4.0 | 12.0 | 0.00 | 0.00 | 0.00 | 43 | 1006.9 |
| 20260506004510 | 75 | 232 | 4.0 | 12.0 | 0.00 | 0.00 | 0.00 | 43 | 1007.0 |
| 20260506004006 | 76 | 219 | 6.0 | 12.0 | 0.00 | 0.00 | 0.00 | 41 | 1006.9 |
| 20260506003506 | 76 | 221 | 5.0 | 18.0 | 0.00 | 0.00 | 0.00 | 42 | 1006.9 |
| 20260506003005 | 76 | 163 | 5.0 | 15.0 | 0.00 | 0.00 | 0.00 | 41 | 1006.7 |
| 20260506002508 | 76 | 192 | 5.0 | 16.0 | 0.00 | 0.00 | 0.00 | 41 | 1006.6 |
| 20260506002005 | 76 | 175 | 7.0 | 16.0 | 0.00 | 0.00 | 0.00 | 41 | 1006.6 |
| 20260506001504 | 76 | 186 | 6.0 | 11.0 | 0.00 | 0.00 | 0.00 | 41 | 1006.6 |
| 20260506001005 | 76 | 209 | 5.0 | 16.0 | 0.00 | 0.00 | 0.00 | 41 | 1006.6 |
| 20260506000507 | 76 | 257 | 7.0 | 16.0 | 0.00 | 0.00 | 0.00 | 41 | 1006.4 |
| 20260506000004 | 76 | 183 | 5.0 | 11.0 | 0.00 | 0.00 | 0.00 | 41 | 1006.6 |
| 20260505235504 | 76 | 163 | 4.0 | 13.0 | 0.00 | 0.00 | 0.00 | 40 | 1006.6 |
| 20260505235003 | 76 | 173 | 4.0 | 13.0 | 0.00 | 0.00 | 0.00 | 40 | 1006.5 |
| 20260505234507 | 76 | 197 | 5.0 | 15.0 | 0.00 | 0.00 | 0.00 | 40 | 1006.3 |
| 20260505234004 | 76 | 181 | 6.0 | 15.0 | 0.00 | 0.00 | 0.00 | 39 | 1006.3 |
| 20260505233506 | 77 | 192 | 4.0 | 15.0 | 0.00 | 0.00 | 0.00 | 39 | 1006.3 |
| 20260505233007 | 77 | 137 | 7.0 | 15.0 | 0.00 | 0.00 | 0.00 | 39 | 1006.1 |
| 20260505232502 | 77 | 183 | 7.0 | 16.0 | 0.00 | 0.00 | 0.00 | 39 | 1005.9 |
| 20260505232002 | 77 | 205 | 5.0 | 13.0 | 0.00 | 0.00 | 0.00 | 39 | 1006.1 |
| 20260505231508 | 77 | 221 | 5.0 | 14.0 | 0.00 | 0.00 | 0.00 | 38 | 1005.8 |
| 20260505231001 | 77 | 174 | 6.0 | 14.0 | 0.00 | 0.00 | 0.00 | 38 | 1005.8 |
| 20260505230502 | 77 | 182 | 8.0 | 14.0 | 0.00 | 0.00 | 0.00 | 37 | 1005.7 |
| 20260505230002 | 78 | 237 | 5.0 | 17.0 | 0.00 | 0.00 | 0.00 | 37 | 1005.8 |
| 20260505225502 | 78 | 237 | 5.0 | 13.0 | 0.00 | 0.00 | 0.00 | 37 | 1005.7 |
| 20260505225001 | 78 | 200 | 5.0 | 15.0 | 0.00 | 0.00 | 0.00 | 37 | 1005.6 |
| 20260505224501 | 78 | 140 | 6.0 | 15.0 | 0.00 | 0.00 | 0.00 | 36 | 1005.5 |
| 20260505224000 | 78 | 192 | 7.0 | 14.0 | 0.00 | 0.00 | 0.00 | 36 | 1005.5 |
| 20260505223501 | 78 | 232 | 6.0 | 13.0 | 0.00 | 0.00 | 0.00 | 36 | 1005.4 |
| 20260505223101 | 78 | 170 | 6.0 | 13.0 | 0.00 | 0.00 | 0.00 | 36 | 1005.4 |
| 20260505222600 | 78 | 198 | 6.0 | 14.0 | 0.00 | 0.00 | 0.00 | 36 | 1005.3 |
| 20260505222503 | 78 | 157 | 5.0 | 15.0 | 0.00 | 0.00 | 0.00 | 36 | 1005.3 |
| 20260505222100 | 78 | 241 | 6.0 | 19.0 | 0.00 | 0.00 | 0.00 | 36 | 1005.2 |
| 20260505221604 | 79 | 227 | 7.0 | 19.0 | 0.00 | 0.00 | 0.00 | 36 | 1005.0 |
| 20260505221100 | 78 | 173 | 5.0 | 15.0 | 0.00 | 0.00 | 0.00 | 37 | 1005.0 |
| 20260505220559 | 79 | 184 | 5.0 | 13.0 | 0.00 | 0.00 | 0.00 | 37 | 1005.1 |
| 20260505220107 | 79 | 169 | 7.0 | 13.0 | 0.00 | 0.00 | 0.00 | 37 | 1005.1 |
| 20260505215559 | 79 | 207 | 3.0 | 22.0 | 0.00 | 0.00 | 0.00 | 37 | 1005.0 |
| 20260505215059 | 80 | 229 | 6.0 | 22.0 | 0.00 | 0.00 | 0.00 | 36 | 1005.0 |
| 20260505214605 | 80 | 188 | 7.0 | 20.0 | 0.00 | 0.00 | 0.00 | 36 | 1004.8 |
| 20260505214059 | 80 | 196 | 8.0 | 19.0 | 0.00 | 0.00 | 0.00 | 35 | 1004.9 |
| 20260505213558 | 80 | 164 | 7.0 | 19.0 | 0.00 | 0.00 | 0.00 | 35 | 1005.0 |
| 20260505213103 | 80 | 192 | 8.0 | 19.0 | 0.00 | 0.00 | 0.00 | 36 | 1004.7 |
| 20260505212558 | 81 | 217 | 5.0 | 19.0 | 0.00 | 0.00 | 0.00 | 35 | 1004.6 |
| 20260505212058 | 81 | 173 | 5.0 | 22.0 | 0.00 | 0.00 | 0.00 | 36 | 1004.7 |
| 20260505211602 | 81 | 213 | 9.0 | 21.0 | 0.00 | 0.00 | 0.00 | 35 | 1004.7 |
| 20260505211100 | 81 | 218 | 8.0 | 23.0 | 0.00 | 0.00 | 0.00 | 34 | 1004.7 |
| 20260505210556 | 81 | 196 | 7.0 | 18.0 | 0.00 | 0.00 | 0.00 | 33 | 1004.7 |
| 20260505210057 | 82 | 231 | 5.0 | 20.0 | 0.00 | 0.00 | 0.00 | 33 | 1004.5 |
| 20260505205557 | 83 | 164 | 9.0 | 25.0 | 0.00 | 0.00 | 0.00 | 33 | 1004.5 |
| 20260505205056 | 83 | 199 | 8.0 | 16.0 | 0.00 | 0.00 | 0.00 | 34 | 1004.6 |
| 20260505204600 | 83 | 194 | 9.0 | 33.0 | 0.00 | 0.00 | 0.00 | 33 | 1004.5 |
| 20260505204056 | 83 | 159 | 7.0 | 33.0 | 0.00 | 0.00 | 0.00 | 34 | 1004.3 |
| 20260505203554 | 82 | 190 | 11.0 | 22.0 | 0.00 | 0.00 | 0.00 | 34 | 1004.5 |
| 20260505203055 | 82 | 170 | 10.0 | 23.0 | 0.00 | 0.00 | 0.00 | 33 | 1004.4 |
| 20260505202553 | 83 | 163 | 7.0 | 24.0 | 0.00 | 0.00 | 0.00 | 35 | 1004.5 |
| 20260505202053 | 83 | 220 | 8.0 | 24.0 | 0.00 | 0.00 | 0.00 | 34 | 1004.6 |
| 20260505201552 | 83 | 188 | 9.0 | 22.0 | 0.00 | 0.00 | 0.00 | 35 | 1004.6 |
| 20260505201051 | 83 | 217 | 10.0 | 27.0 | 0.00 | 0.00 | 0.00 | 34 | 1004.7 |
| 20260505200550 | 83 | 217 | 10.0 | 27.0 | 0.00 | 0.00 | 0.00 | 34 | 1004.7 |
| 20260505200051 | 83 | 201 | 11.0 | 24.0 | 0.00 | 0.00 | 0.00 | 35 | 1004.7 |
| 20260505195549 | 82 | 194 | 9.0 | 20.0 | 0.00 | 0.00 | 0.00 | 35 | 1004.7 |
| 20260505195048 | 82 | 223 | 10.0 | 33.0 | 0.00 | 0.00 | 0.00 | 35 | 1004.8 |
| 20260505194548 | 82 | 181 | 13.0 | 33.0 | 0.00 | 0.00 | 0.00 | 34 | 1005.1 |
| 20260505194049 | 83 | 203 | 13.0 | 26.0 | 0.00 | 0.00 | 0.00 | 36 | 1004.9 |
| 20260505193545 | 82 | 222 | 8.0 | 24.0 | 0.00 | 0.00 | 0.00 | 35 | 1004.9 |
| 20260505193047 | 82 | 222 | 12.0 | 24.0 | 0.00 | 0.00 | 0.00 | 35 | 1005.1 |
| 20260505192542 | 82 | 179 | 11.0 | 30.0 | 0.00 | 0.00 | 0.00 | 36 | 1005.1 |
| 20260505192042 | 82 | 192 | 13.0 | 30.0 | 0.00 | 0.00 | 0.00 | 35 | 1005.4 |
| 20260505191553 | 81 | 183 | 13.0 | 26.0 | 0.00 | 0.00 | 0.00 | 38 | 1005.1 |
| 20260505191042 | 80 | 226 | 7.0 | 22.0 | 0.00 | 0.00 | 0.00 | 38 | 1005.3 |
| 20260505190540 | 82 | 198 | 12.0 | 24.0 | 0.00 | 0.00 | 0.00 | 36 | 1005.6 |
| 20260505190044 | 82 | 119 | 11.0 | 22.0 | 0.00 | 0.00 | 0.00 | 38 | 1005.4 |
| 20260505185540 | 83 | 171 | 10.0 | 19.0 | 0.00 | 0.00 | 0.00 | 37 | 1005.5 |
| 20260505185039 | 83 | 234 | 10.0 | 21.0 | 0.00 | 0.00 | 0.00 | 37 | 1005.6 |
| 20260505184538 | 83 | 193 | 6.0 | 22.0 | 0.00 | 0.00 | 0.00 | 38 | 1005.4 |
| 20260505184039 | 83 | 218 | 10.0 | 27.0 | 0.00 | 0.00 | 0.00 | 38 | 1005.3 |
| 20260505183536 | 83 | 213 | 9.0 | 27.0 | 0.00 | 0.00 | 0.00 | 37 | 1005.3 |
| 20260505183034 | 83 | 205 | 7.0 | 26.0 | 0.00 | 0.00 | 0.00 | 38 | 1005.7 |
| 20260505182535 | 82 | 243 | 11.0 | 26.0 | 0.00 | 0.00 | 0.00 | 37 | 1005.8 |
| 20260505182033 | 82 | 159 | 10.0 | 23.0 | 0.00 | 0.00 | 0.00 | 39 | 1005.9 |
| 20260505181532 | 82 | 199 | 10.0 | 23.0 | 0.00 | 0.00 | 0.00 | 39 | 1005.7 |
| 20260505181030 | 82 | 225 | 12.0 | 18.0 | 0.00 | 0.00 | 0.00 | 39 | 1005.8 |
| 20260505180530 | 82 | 149 | 7.0 | 23.0 | 0.00 | 0.00 | 0.00 | 41 | 1005.7 |
| 20260505180043 | 81 | 164 | 9.0 | 20.0 | 0.00 | 0.00 | 0.00 | 40 | 1005.8 |
| 20260505175528 | 82 | 162 | 7.0 | 20.0 | 0.00 | 0.00 | 0.00 | 43 | 1005.8 |
| 20260505175031 | 81 | 217 | 9.0 | 22.0 | 0.00 | 0.00 | 0.00 | 41 | 1005.8 |
| 20260505174536 | 82 | 177 | 11.0 | 24.0 | 0.00 | 0.00 | 0.00 | 41 | 1006.0 |
| 20260505174025 | 81 | 194 | 12.0 | 22.0 | 0.00 | 0.00 | 0.00 | 42 | 1006.0 |
| 20260505173524 | 81 | 163 | 9.0 | 22.0 | 0.00 | 0.00 | 0.00 | 45 | 1006.2 |
| 20260505173023 | 81 | 133 | 6.0 | 19.0 | 0.00 | 0.00 | 0.00 | 42 | 1006.2 |
| 20260505172522 | 81 | 178 | 9.0 | 19.0 | 0.00 | 0.00 | 0.00 | 42 | 1006.3 |
| 20260505172021 | 81 | 155 | 10.0 | 20.0 | 0.00 | 0.00 | 0.00 | 42 | 1006.2 |
| 20260505171524 | 81 | 168 | 10.0 | 22.0 | 0.00 | 0.00 | 0.00 | 43 | 1006.2 |
| 20260505171020 | 81 | 185 | 7.0 | 22.0 | 0.00 | 0.00 | 0.00 | 48 | 1006.2 |
| 20260505170519 | 81 | 188 | 5.0 | 19.0 | 0.00 | 0.00 | 0.00 | 48 | 1006.2 |
| 20260505170025 | 82 | 167 | 4.0 | 14.0 | 0.00 | 0.00 | 0.00 | 48 | 1006.3 |
| 20260505165521 | 81 | 157 | 4.0 | 15.0 | 0.00 | 0.00 | 0.00 | 51 | 1006.3 |
| 20260505165016 | 80 | 134 | 4.0 | 19.0 | 0.00 | 0.00 | 0.00 | 49 | 1006.4 |
| 20260505164518 | 80 | 144 | 6.0 | 19.0 | 0.00 | 0.00 | 0.00 | 46 | 1006.6 |
| 20260505164014 | 80 | 162 | 3.0 | 16.0 | 0.00 | 0.00 | 0.00 | 49 | 1006.8 |
| 20260505163514 | 80 | 217 | 9.0 | 16.0 | 0.00 | 0.00 | 0.00 | 45 | 1007.1 |
| 20260505163011 | 80 | 130 | 3.0 | 16.0 | 0.00 | 0.00 | 0.00 | 50 | 1007.0 |
| 20260505162510 | 79 | 185 | 6.0 | 16.0 | 0.00 | 0.00 | 0.00 | 47 | 1007.1 |
| 20260505162009 | 80 | 143 | 6.0 | 13.0 | 0.00 | 0.00 | 0.00 | 47 | 1007.2 |
| 20260505161508 | 79 | 201 | 6.0 | 13.0 | 0.00 | 0.00 | 0.00 | 49 | 1007.4 |
| 20260505161008 | 79 | 215 | 5.0 | 11.0 | 0.00 | 0.00 | 0.00 | 48 | 1007.5 |
| 20260505160507 | 79 | 197 | 4.0 | 15.0 | 0.00 | 0.00 | 0.00 | 50 | 1007.6 |
| 20260505153002 | 77 | 229 | 4.0 | 11.0 | 0.00 | 0.00 | 0.00 | 51 | 1008.0 |
| 20260505152501 | 78 | 166 | 3.0 | 13.0 | 0.00 | 0.00 | 0.00 | 49 | 1007.9 |
| 20260505152001 | 77 | 240 | 4.0 | 13.0 | 0.00 | 0.00 | 0.00 | 54 | 1008.1 |
| 20260505151600 | 77 | 188 | 4.0 | 10.0 | 0.00 | 0.00 | 0.00 | 53 | 1008.1 |
| 20260505151058 | 76 | 153 | 4.0 | 12.0 | 0.00 | 0.00 | 0.00 | 55 | 1008.0 |
| 20260505150558 | 76 | 201 | 2.0 | 10.0 | 0.00 | 0.00 | 0.00 | 57 | 1008.1 |
| 20260505140547 | 69 | 201 | 3.0 | 10.0 | 0.00 | 0.00 | 0.00 | 61 | 1008.9 |
| 20260505125033 | 60 | 167 | 2.0 | 6.0 | 0.00 | 0.00 | 0.00 | 65 | 1009.0 |
| 20260505124529 | 60 | 172 | 2.0 | 5.0 | 0.00 | 0.00 | 0.00 | 67 | 1009.0 |
| 20260505124028 | 60 | 181 | 3.0 | 5.0 | 0.00 | 0.00 | 0.00 | 66 | 1009.1 |
| 20260505123527 | 60 | 209 | 1.0 | 5.0 | 0.00 | 0.00 | 0.00 | 67 | 1009.2 |
| 20260505123046 | 59 | 237 | 2.0 | 5.0 | 0.00 | 0.00 | 0.00 | 68 | 1009.0 |
| 20260505122526 | 59 | 217 | 2.0 | 8.0 | 0.00 | 0.00 | 0.00 | 67 | 1009.1 |
| 20260505122026 | 59 | 219 | 3.0 | 8.0 | 0.00 | 0.00 | 0.00 | 67 | 1009.2 |
| 20260505121526 | 58 | 225 | 2.0 | 6.0 | 0.00 | 0.00 | 0.00 | 68 | 1009.2 |
| 20260505121026 | 58 | 216 | 2.0 | 6.0 | 0.00 | 0.00 | 0.00 | 69 | 1009.3 |
| 20260505120526 | 58 | 178 | 3.0 | 9.0 | 0.00 | 0.00 | 0.00 | 68 | 1009.2 |
| 20260505120029 | 58 | 226 | 3.0 | 9.0 | 0.00 | 0.00 | 0.00 | 68 | 1009.2 |
| 20260505115525 | 57 | 165 | 3.0 | 9.0 | 0.00 | 0.00 | 0.00 | 69 | 1009.1 |
| 20260505115025 | 57 | 161 | 2.0 | 8.0 | 0.00 | 0.00 | 0.00 | 69 | 1009.1 |
| 20260505114525 | 57 | 192 | 2.0 | 10.0 | 0.00 | 0.00 | 0.00 | 68 | 1009.2 |
| 20260505114025 | 57 | 183 | 4.0 | 10.0 | 0.00 | 0.00 | 0.00 | 69 | 1009.3 |
| 20260505113524 | 56 | 223 | 4.0 | 9.0 | 0.00 | 0.00 | 0.00 | 69 | 1009.3 |
| 20260505113033 | 56 | 175 | 3.0 | 9.0 | 0.00 | 0.00 | 0.00 | 70 | 1009.3 |
| 20260505112523 | 55 | 174 | 3.0 | 10.0 | 0.00 | 0.00 | 0.00 | 70 | 1009.3 |
| 20260505112024 | 55 | 187 | 4.0 | 10.0 | 0.00 | 0.00 | 0.00 | 71 | 1009.3 |
| 20260505111539 | 55 | 164 | 3.0 | 10.0 | 0.00 | 0.00 | 0.00 | 70 | 1009.4 |
| 20260505111023 | 55 | 184 | 4.0 | 10.0 | 0.00 | 0.00 | 0.00 | 70 | 1009.3 |
| 20260505110522 | 55 | 186 | 4.0 | 10.0 | 0.00 | 0.00 | 0.00 | 70 | 1009.3 |
| 20260505102020 | 53 | 204 | 4.0 | 9.0 | 0.00 | 0.00 | 0.00 | 70 | 1008.6 |
| 20260505101517 | 53 | 156 | 3.0 | 9.0 | 0.00 | 0.00 | 0.00 | 70 | 1008.5 |
| 20260505101019 | 53 | 162 | 4.0 | 9.0 | 0.00 | 0.00 | 0.00 | 70 | 1008.4 |
| 20260505100517 | 53 | 213 | 3.0 | 8.0 | 0.00 | 0.00 | 0.00 | 70 | 1008.5 |
| 20260505100016 | 53 | 198 | 4.0 | 8.0 | 0.00 | 0.00 | 0.00 | 70 | 1008.5 |
| 20260505095517 | 53 | 195 | 3.0 | 9.0 | 0.00 | 0.00 | 0.00 | 70 | 1008.4 |
| 20260505095015 | 53 | 176 | 4.0 | 9.0 | 0.00 | 0.00 | 0.00 | 70 | 1008.6 |
| 20260505094517 | 53 | 186 | 3.0 | 9.0 | 0.00 | 0.00 | 0.00 | 70 | 1008.5 |
| 20260505094019 | 53 | 147 | 6.0 | 9.0 | 0.00 | 0.00 | 0.00 | 70 | 1008.6 |
| 20260505093514 | 52 | 196 | 3.0 | 8.0 | 0.00 | 0.00 | 0.00 | 71 | 1008.5 |
| 20260505093014 | 52 | 175 | 3.0 | 8.0 | 0.00 | 0.00 | 0.00 | 71 | 1008.5 |
| 20260505092515 | 53 | 189 | 2.0 | 7.0 | 0.00 | 0.00 | 0.00 | 70 | 1008.5 |
| 20260505092014 | 53 | 183 | 1.0 | 5.0 | 0.00 | 0.00 | 0.00 | 70 | 1008.4 |
| 20260505091513 | 53 | 173 | 2.0 | 5.0 | 0.00 | 0.00 | 0.00 | 69 | 1008.4 |
| 20260505091012 | 53 | 173 | 3.0 | 6.0 | 0.00 | 0.00 | 0.00 | 70 | 1008.4 |
| 20260505090613 | 53 | 167 | 3.0 | 5.0 | 0.00 | 0.00 | 0.00 | 71 | 1008.3 |
| 20260505090011 | 52 | 165 | 1.0 | 3.0 | 0.00 | 0.00 | 0.00 | 71 | 1008.4 |
| 20260505085511 | 52 | 165 | 1.0 | 6.0 | 0.00 | 0.00 | 0.00 | 72 | 1008.4 |
| 20260505085015 | 52 | 165 | 2.0 | 6.0 | 0.00 | 0.00 | 0.00 | 73 | 1008.4 |
| 20260505084516 | 51 | 185 | 2.0 | 4.0 | 0.00 | 0.00 | 0.00 | 73 | 1008.4 |
| 20260505084010 | 51 | 186 | 1.0 | 2.0 | 0.00 | 0.00 | 0.00 | 72 | 1008.6 |
| 20260505083509 | 52 | 186 | 0.0 | 2.0 | 0.00 | 0.00 | 0.00 | 70 | 1008.6 |
| 20260505083013 | 52 | 186 | 0.0 | 3.0 | 0.00 | 0.00 | 0.00 | 69 | 1008.6 |
| 20260505082505 | 53 | 186 | 1.0 | 3.0 | 0.00 | 0.00 | 0.00 | 68 | 1008.6 |
| 20260505082007 | 54 | 186 | 1.0 | 3.0 | 0.00 | 0.00 | 0.00 | 67 | 1008.6 |
| 20260505081504 | 53 | 186 | 1.0 | 3.0 | 0.00 | 0.00 | 0.00 | 68 | 1008.7 |
| 20260505081007 | 54 | 185 | 0.0 | 2.0 | 0.00 | 0.00 | 0.00 | 68 | 1008.7 |
| 20260505080506 | 54 | 185 | 0.0 | 3.0 | 0.00 | 0.00 | 0.00 | 68 | 1008.7 |
| 20260505080007 | 53 | 185 | 0.0 | 3.0 | 0.00 | 0.00 | 0.00 | 68 | 1008.8 |
| 20260505075502 | 54 | 185 | 0.0 | 4.0 | 0.00 | 0.00 | 0.00 | 68 | 1008.7 |
| 20260505075007 | 53 | 185 | 1.0 | 4.0 | 0.00 | 0.00 | 0.00 | 68 | 1008.6 |
| 20260505074501 | 54 | 186 | 0.0 | 1.0 | 0.00 | 0.00 | 0.00 | 67 | 1008.6 |
| 20260505074100 | 54 | 186 | 0.0 | 1.0 | 0.00 | 0.00 | 0.00 | 67 | 1008.6 |
| 20260505073600 | 54 | 186 | 0.0 | 2.0 | 0.00 | 0.00 | 0.00 | 67 | 1008.6 |
| 20260505073106 | 54 | 186 | 0.0 | 6.0 | 0.00 | 0.00 | 0.00 | 67 | 1008.5 |
| 20260505072557 | 55 | 186 | 1.0 | 6.0 | 0.00 | 0.00 | 0.00 | 65 | 1008.6 |
| 20260505072057 | 55 | 177 | 1.0 | 4.0 | 0.00 | 0.00 | 0.00 | 65 | 1008.6 |
| 20260505071556 | 55 | 175 | 1.0 | 5.0 | 0.00 | 0.00 | 0.00 | 65 | 1008.6 |
| 20260505071055 | 55 | 175 | 3.0 | 6.0 | 0.00 | 0.00 | 0.00 | 64 | 1008.6 |
| 20260505070555 | 55 | 190 | 3.0 | 6.0 | 0.00 | 0.00 | 0.00 | 64 | 1008.6 |
| 20260505070054 | 55 | 175 | 2.0 | 5.0 | 0.00 | 0.00 | 0.00 | 64 | 1008.7 |
| 20260505065553 | 55 | 174 | 2.0 | 5.0 | 0.00 | 0.00 | 0.00 | 64 | 1008.6 |
| 20260505065055 | 55 | 193 | 1.0 | 4.0 | 0.00 | 0.00 | 0.00 | 64 | 1008.6 |
| 20260505064600 | 56 | 192 | 1.0 | 5.0 | 0.00 | 0.00 | 0.00 | 63 | 1008.6 |
| 20260505064050 | 56 | 193 | 2.0 | 5.0 | 0.00 | 0.00 | 0.00 | 62 | 1008.7 |
| 20260505063550 | 56 | 194 | 2.0 | 6.0 | 0.00 | 0.00 | 0.00 | 62 | 1008.7 |
| 20260505063053 | 56 | 201 | 2.0 | 6.0 | 0.00 | 0.00 | 0.00 | 62 | 1008.7 |
| 20260505062549 | 56 | 215 | 3.0 | 5.0 | 0.00 | 0.00 | 0.00 | 62 | 1008.8 |
| 20260505062048 | 57 | 166 | 3.0 | 6.0 | 0.00 | 0.00 | 0.00 | 61 | 1008.7 |
| 20260505061546 | 57 | 187 | 2.0 | 5.0 | 0.00 | 0.00 | 0.00 | 61 | 1008.8 |
| 20260505061046 | 57 | 194 | 1.0 | 6.0 | 0.00 | 0.00 | 0.00 | 61 | 1008.7 |
| 20260505060546 | 57 | 194 | 2.0 | 6.0 | 0.00 | 0.00 | 0.00 | 61 | 1008.8 |
| 20260505060146 | 57 | 192 | 3.0 | 6.0 | 0.00 | 0.00 | 0.00 | 62 | 1008.7 |
| 20260505055544 | 57 | 192 | 2.0 | 6.0 | 0.00 | 0.00 | 0.00 | 62 | 1008.7 |
| 20260505055044 | 57 | 187 | 2.0 | 7.0 | 0.00 | 0.00 | 0.00 | 62 | 1008.8 |
| 20260505054551 | 57 | 155 | 3.0 | 8.0 | 0.00 | 0.00 | 0.00 | 62 | 1008.8 |
| 20260505054042 | 57 | 178 | 2.0 | 8.0 | 0.00 | 0.00 | 0.00 | 61 | 1008.9 |
| 20260505053541 | 57 | 179 | 3.0 | 7.0 | 0.00 | 0.00 | 0.00 | 61 | 1008.8 |
| 20260505053040 | 57 | 167 | 4.0 | 7.0 | 0.00 | 0.00 | 0.00 | 61 | 1008.9 |
| 20260505052539 | 58 | 192 | 2.0 | 6.0 | 0.00 | 0.00 | 0.00 | 61 | 1008.9 |
| 20260505052038 | 58 | 178 | 2.0 | 6.0 | 0.00 | 0.00 | 0.00 | 60 | 1008.9 |
| 20260505051537 | 58 | 179 | 2.0 | 6.0 | 0.00 | 0.00 | 0.00 | 59 | 1009.1 |
| 20260505051037 | 58 | 192 | 3.0 | 7.0 | 0.00 | 0.00 | 0.00 | 59 | 1009.1 |
| 20260505050535 | 58 | 186 | 3.0 | 8.0 | 0.00 | 0.00 | 0.00 | 58 | 1009.2 |
| 20260505041534 | 59 | 181 | 3.0 | 8.0 | 0.00 | 0.00 | 0.00 | 56 | 1009.2 |
| 20260505041029 | 59 | 172 | 3.0 | 8.0 | 0.00 | 0.00 | 0.00 | 56 | 1009.2 |
| 20260505040529 | 59 | 184 | 2.0 | 8.0 | 0.00 | 0.00 | 0.00 | 55 | 1009.1 |
| 20260505040029 | 59 | 176 | 4.0 | 8.0 | 0.00 | 0.00 | 0.00 | 55 | 1009.1 |
| 20260505035527 | 60 | 188 | 3.0 | 7.0 | 0.00 | 0.00 | 0.00 | 54 | 1009.0 |
| 20260505035027 | 60 | 174 | 3.0 | 7.0 | 0.00 | 0.00 | 0.00 | 54 | 1009.0 |
| 20260505034528 | 60 | 152 | 3.0 | 7.0 | 0.00 | 0.00 | 0.00 | 53 | 1009.0 |
| 20260505034027 | 61 | 157 | 4.0 | 8.0 | 0.00 | 0.00 | 0.00 | 53 | 1009.0 |
| 20260505033531 | 61 | 196 | 5.0 | 8.0 | 0.00 | 0.00 | 0.00 | 53 | 1008.9 |
| 20260505033030 | 61 | 163 | 4.0 | 8.0 | 0.00 | 0.00 | 0.00 | 53 | 1009.0 |
| 20260505032526 | 61 | 214 | 3.0 | 14.0 | 0.00 | 0.00 | 0.00 | 53 | 1009.1 |
| 20260505032030 | 61 | 223 | 3.0 | 9.0 | 0.00 | 0.00 | 0.00 | 52 | 1009.1 |
| 20260505031526 | 61 | 192 | 4.0 | 9.0 | 0.00 | 0.00 | 0.00 | 52 | 1009.0 |
| 20260505031026 | 61 | 173 | 2.0 | 8.0 | 0.00 | 0.00 | 0.00 | 52 | 1009.0 |
| 20260505030527 | 61 | 186 | 3.0 | 7.0 | 0.00 | 0.00 | 0.00 | 51 | 1009.0 |
| 20260505030026 | 61 | 153 | 3.0 | 9.0 | 0.00 | 0.00 | 0.00 | 51 | 1009.1 |
| 20260505025526 | 61 | 192 | 3.0 | 8.0 | 0.00 | 0.00 | 0.00 | 51 | 1009.1 |
| 20260505025025 | 62 | 203 | 3.0 | 10.0 | 0.00 | 0.00 | 0.00 | 50 | 1009.0 |
| 20260505024538 | 62 | 205 | 4.0 | 11.0 | 0.00 | 0.00 | 0.00 | 51 | 1009.2 |
| 20260505024025 | 62 | 207 | 4.0 | 11.0 | 0.00 | 0.00 | 0.00 | 50 | 1009.2 |
| 20260505023525 | 62 | 156 | 4.0 | 10.0 | 0.00 | 0.00 | 0.00 | 51 | 1009.0 |